South Bend, IN

3:10 AM EDT on September 29, 2016 (GMT -0400)
South Bend Regional

Weather History for KSBN - January, 2015

Change the Weather History Date:

Tuesday, January 27, 2015

  Actual Average Record
Temperature  
Mean Temperature 23 °F 24 °F  
Max Temperature 30 °F 31 °F 60 °F (1916)
Min Temperature 15 °F 18 °F -9 °F (1963)
Degree Days  
Heating Degree Days 42 41  
Month to date heating degree days 1156 1099  
Since 1 July heating degree days 3576 3490  
Cooling Degree Days 0 0  
Month to date cooling degree days 0 0  
Year to date cooling degree days 0 0  
Moisture  
Dew Point 11 °F    
Average Humidity 55    
Maximum Humidity 74    
Minimum Humidity 36    
Precipitation  
Precipitation 0.00 in 0.06 in 0.62 in (1967)
Month to date precipitation 1.83 2.03  
Year to date precipitation 1.83 2.03  
Snow  
Snow 0.00 in 0.70 in 9.70 in (2004)
Month to date snowfall 21.3 17.9  
Since 1 July snowfall 40.8 40.4  
Snow Depth 2.00 in    
Sea Level Pressure  
Sea Level Pressure 30.15 in    
Wind  
Wind Speed 5 mph (NE)    
Max Wind Speed 12 mph    
Max Gust Speed 16 mph    
Visibility 10 miles    
Events      
T = Trace of Precipitation, MM = Missing Value Source: NWS Daily Summary

Daily Weather History Graph

Daily Weather History Graph

Search for Another Location

Airport or City:

Trip Planner

Search our weather history database for the weather conditions in past years. The results will help you decide how hot, cold, wet, or windy it might be!

Date:

Astronomy

Jan. 27, 2015 Rise Set
Actual Time 8:02 AM EST 5:54 PM EST
Civil Twilight 7:32 AM EST 6:24 PM EST
Nautical Twilight 6:58 AM EST 6:57 PM EST
Astronomical Twilight 6:26 AM EST 7:30 PM EST
Moon 12:18 PM EST (1/27) 1:28 AM EST (1/27)
Length of Visible Light 10h 51m
Length of Day
9h 51m
First Quarter, 55% of the Moon is Illuminated
Jan 27
First Quarter
Feb 3
Full
Feb 11
Last Quarter
Feb 18
New
Feb 25
First Quarter

Hourly Weather History & Observations

Time (EST) Temp. Windchill Dew Point Humidity Pressure Visibility Wind Dir Wind Speed Gust Speed Precip Events Conditions
12:54 AM 24.1 °F 17.0 °F 15.1 °F 69% 29.98 in 10.0 mi East 5.8 mph - N/A   Overcast
1:54 AM 24.1 °F 19.7 °F 14.0 °F 65% 29.97 in 10.0 mi East 3.5 mph - N/A   Overcast
2:54 AM 24.1 °F 19.7 °F 14.0 °F 65% 29.99 in 10.0 mi NE 3.5 mph - N/A   Overcast
3:54 AM 23.0 °F 17.0 °F 14.0 °F 68% 30.00 in 10.0 mi ENE 4.6 mph - N/A   Overcast
4:54 AM 23.0 °F 18.4 °F 14.0 °F 68% 30.01 in 10.0 mi ENE 3.5 mph - N/A   Overcast
5:54 AM 23.0 °F 18.4 °F 12.9 °F 65% 30.04 in 10.0 mi ENE 3.5 mph - N/A   Overcast
6:54 AM 21.9 °F 17.2 °F 12.9 °F 68% 30.07 in 10.0 mi NE 3.5 mph - N/A   Overcast
7:54 AM 21.9 °F 14.5 °F 10.9 °F 63% 30.10 in 10.0 mi NE 5.8 mph - N/A   Overcast
8:54 AM 21.9 °F 17.2 °F 10.9 °F 63% 30.13 in 10.0 mi NE 3.5 mph - N/A   Scattered Clouds
9:54 AM 23.0 °F 13.9 °F 12.0 °F 63% 30.16 in 10.0 mi NE 8.1 mph - N/A   Overcast
10:54 AM 25.0 °F 18.1 °F 10.9 °F 55% 30.16 in 10.0 mi NE 5.8 mph - N/A   Clear
11:54 AM 27.0 °F 19.5 °F 10.0 °F 49% 30.17 in 10.0 mi ENE 6.9 mph - N/A   Clear
12:54 PM 28.0 °F - 8.1 °F 43% 30.18 in 10.0 mi Calm Calm - N/A   Clear
1:54 PM 28.9 °F 23.9 °F 8.1 °F 41% 30.18 in 10.0 mi NW 4.6 mph - N/A   Clear
2:54 PM 30.0 °F 23.2 °F 7.0 °F 38% 30.19 in 10.0 mi North 6.9 mph - N/A   Clear
3:54 PM 28.9 °F 20.4 °F 9.0 °F 43% 30.21 in 10.0 mi NNE 9.2 mph - N/A   Clear
4:54 PM 28.9 °F 21.9 °F 10.9 °F 47% 30.22 in 10.0 mi North 6.9 mph - N/A   Clear
5:54 PM 25.0 °F 19.3 °F 10.9 °F 55% 30.23 in 10.0 mi North 4.6 mph - N/A   Clear
6:54 PM 23.0 °F 15.8 °F 10.9 °F 60% 30.26 in 10.0 mi North 5.8 mph - N/A   Clear
7:54 PM 19.9 °F 11.1 °F 10.9 °F 68% 30.28 in 10.0 mi North 6.9 mph - N/A   Clear
8:54 PM 19.0 °F 12.3 °F 10.9 °F 71% 30.29 in 10.0 mi North 4.6 mph - N/A   Clear
9:54 PM 18.0 °F - 10.9 °F 74% 30.28 in 10.0 mi Calm Calm - N/A   Clear
10:54 PM 16.0 °F - 9.0 °F 74% 30.29 in 10.0 mi Calm Calm - N/A   Clear
11:54 PM 15.1 °F - 9.0 °F 77% 30.30 in 10.0 mi Calm Calm - N/A   Clear